Date,TemperatureHighF,TemperatureAvgF,TemperatureLowF,DewpointHighF,DewpointAvgF,DewpointLowF,HumidityHigh,HumidityAvg,HumidityLow,PressureMaxIn,PressureMinIn,WindSpeedMaxMPH,WindSpeedAvgMPH,GustSpeedMaxMPH,PrecipitationSumIn
2013-4-1,52,43,34,37,34,30,92,70,46,30.18,30.00,1,0,2,0.00
2013-4-2,41,38,36,38,36,35,99,92,81,30.14,30.06,0,0,0,0.16
2013-4-3,60,46,36,41,36,32,99,73,36,30.16,30.06,0,0,0,0.03
2013-4-4,68,55,38,36,33,29,84,47,25,30.19,30.03,0,0,0,0.00
2013-4-5,72,58,47,40,32,27,64,40,19,30.03,29.72,25,0,32,1.69
2013-4-6,62,55,46,38,30,27,57,40,28,29.98,29.86,22,0,24,0.31
2013-4-7,62,53,42,37,34,28,80,50,29,29.88,29.70,0,0,0,0.03
2013-4-8,64,47,27,40,34,26,98,62,36,29.82,29.40,9,0,19,0.00
2013-4-9,27,18,12,26,16,11,98,94,87,30.16,29.83,3,0,13,0.00
2013-4-10,28,18,8,20,14,7,96,84,66,30.14,29.84,0,0,4,0.22
2013-4-11,54,38,21,38,30,19,93,73,45,29.92,29.70,0,0,0,0.02
2013-4-12,60,43,35,38,34,24,92,74,26,29.99,29.86,0,0,4,0.00
2013-4-13,67,52,33,39,30,23,96,54,20,29.96,29.42,0,0,13,0.00
2013-4-14,49,43,38,41,26,13,96,53,27,29.77,29.51,10,0,21,0.30
2013-4-15,39,29,23,30,26,19,100,90,44,30.01,29.70,0,0,9,0.00
2013-4-16,33,28,23,32,27,23,100,96,89,30.00,29.80,0,0,5,0.41
2013-4-17,31,26,20,30,26,20,100,99,97,30.14,29.89,3,0,14,0.02
2013-4-18,37,27,16,22,18,15,98,73,47,30.15,30.06,0,0,0,0.30
2013-4-19,51,42,27,30,24,17,76,48,37,30.13,29.94,0,0,0,0.00
2013-4-20,57,47,38,39,34,28,77,60,42,30.03,29.89,0,0,0,0.00
2013-4-21,63,52,42,36,30,26,70,45,27,30.08,29.98,0,0,0,0.00
2013-4-22,54,36,23,40,30,23,99,82,54,30.30,29.90,2,0,13,0.03
2013-4-23,33,25,20,24,22,20,99,88,67,30.26,30.12,0,0,0,0.37
2013-4-24,54,39,23,27,22,17,85,55,27,30.23,30.11,0,0,0,0.00
2013-4-25,64,49,32,36,25,20,72,43,20,30.18,29.92,0,0,0,0.00
2013-4-26,67,56,41,31,26,21,62,35,20,30.27,30.03,0,0,0,0.00
2013-4-27,74,60,44,32,25,18,58,30,13,30.26,30.06,0,0,0,0.00
2013-4-28,78,64,46,38,30,24,55,30,14,30.09,29.85,0,0,0,0.00
2013-4-29,78,66,49,41,33,26,66,33,15,29.99,29.66,0,0,0,0.00
2013-4-30,64,52,38,42,37,29,97,61,28,30.05,29.67,2,0,11,0.01